Terminal Aerodrome Forecast
Issued by NWS Wakefield, VA

Home | Current Version | Previous Version | Text Only | Print | Product List | Glossary On
Versions: 1 2 3 4 5 6 7 8 9 10 11 12 13 14 15 16 17 18 19 20
000
FTUS41 KAKQ 251043 AAA
TAFECG
TAF AMD
KECG 251043Z 2511/2606 27005KT P6SM BKN006 BKN080
     FM251500 32005KT P6SM SCT050
     FM252300 VRB03KT P6SM SCT150=

USA.gov is the U.S. government's official web portal to all federal, state and local government web resources and services.